Location: Pl�tzky
(52.0521°N, 11.8020°E)
Time: 19:23:30
(UTC+00:00)

Cosmos 2056 Rocket - Pass Details

Date: 22 November 2019
Orbit: 742 x 800 km, 74.0° (Epoch: 14 December)

Event Time Altitude Azimuth Distance (km) Brightness Sun altitude
Rises 16:41:12 0° 334° (NNW) 3,200 6.9 -13.1°
Reaches altitude 10° 16:43:33 10° 333° (NNW) 2,276 6.1 -13.5°
Maximum altitude 16:48:43 80° 247° (WSW) 770 3.6 -14.3°
Drops below altitude 10° 16:53:54 10° 161° (SSE) 2,289 5.9 -15.0°
Sets 16:56:16 0° 161° (SSE) 3,219 6.7 -15.4°
